カタログに戻る

STARLINK-30716

運用中通信VLEO
NORAD 57936·PAYLOAD·🇺🇸 United States

打ち上げ Sep 25, 2023 から Vandenberg Space Force Base

Loading…

次のパス (今後24時間)

TLE

最新Source: CelesTrak SupGP

元期: Sep 14, 2026, 22:32 UTC

1 57936C 23148B   26257.93937500  .00016206  00000+0  47872-3 0  2578
2 57936  53.1579 223.7624 0001368  99.4613  21.7154 15.34388695    11

AllMySatでSTARLINK-30716をリアルタイム追跡

Download on the App Store